map of MIR home
Great Circle Mapper logo
MIR - Airport
Location
City:  Monastir, Tunisia
Name:Habib Bourguiba International Airport
ICAO / IATA:DTMB / MIR

Details
Type:Airport (Aerodrome, Airfield)
Use:Public/Civil, International (customs port of entry)
Latitude:3545'29"N (35.758056)
Longitude:1045'17"E (10.754722)
Datum:WGS 1984
Elevation:9 ft (3 m)
Variation:2.1E (WMM2010 magnetic declination)
Runways:1
Longest:9744 × 148 ft (2970 × 45 m), paved

Time
Time Zone:UTC+1 (DST+2)

Weather
METAR:DTMB 222100Z 01002KT 7000 NSC 19/18 Q1023
TAF:DTMB 222300Z 2300/2324 VRB02KT 4000 BR SCT016
TEMPO 2300/2308 0500 FG BKN016
BECMG 2308/2310 8000 NSC
BECMG 2315/2317 16010KT

Related Locations
Nearby:
Farthest:CHT: 11759 mi / 18924 km
Waitangi [Tuuta], Chatham Islands, NZ

Find:

   beyond  
but within

Other Information
Maps:
NOTAMs:
Links:
Sources:

  
flag of Tunisia   

Sectional Chart

Flight Planning
at skyvector.com

Satellite Image

Google Maps Satellite View

 

Copyright © 2004-2014 Karl L. Swartz. All rights reserved.
The Great Circle Mapper name and logo are trademarks of the Great Circle Mapper.
All other trademarks mentioned herein belong to their respective owners.
Please see credits for attibutions and further copyright information.

  Follow gcmap on Facebook Follow gcmap on Twitter

hCard Microformat

Geo Microformat